This is the latest recevied weather packets stored in our database for station/object W8RD. If no packets are shown the sender has not sent any weather packets the latest 10 day(s).
| Time | Temp. | Humidity | Pressure | Rain* | Wind** | Luminosity | Snow |
|---|---|---|---|---|---|---|---|
| 1777775311 | 21.67° C | 92% | 1014 hPa | 0 mm | - | 0 W/m² | - |
| 1777774708 | 22.22° C | 93% | 1014 hPa | 0 mm | - | 0 W/m² | - |
| 1777774108 | 21.67° C | 94% | 1014.1 hPa | 0 mm | - | 0 W/m² | - |
| 1777773508 | 21.67° C | 95% | 1014.1 hPa | 0 mm | - | 0 W/m² | - |
| 1777772907 | 21.67° C | 96% | 1013.9 hPa | 0 mm | - | 0 W/m² | - |
| 1777772302 | 21.67° C | 96% | 1013.5 hPa | 0 mm | - | 0 W/m² | - |
| 1777771696 | 21.67° C | 96% | 1013.4 hPa | 0 mm | - | 0 W/m² | - |
| 1777771096 | 21.67° C | 96% | 1013.2 hPa | 0 mm | - | 0 W/m² | - |
| 1777770495 | 21.67° C | 96% | 1013.1 hPa | 0 mm | - | 0 W/m² | - |
| 1777769895 | 21.67° C | 96% | 1013.1 hPa | 0 mm | - | 0 W/m² | - |
| 1777769295 | 22.22° C | 96% | 1013.2 hPa | 0 mm | - | 0 W/m² | - |
| 1777768690 | 21.67° C | 96% | 1012.8 hPa | 0 mm | - | 0 W/m² | - |
| 1777768089 | 22.22° C | 96% | 1012.7 hPa | 0 mm | - | 0 W/m² | - |
| 1777767489 | 22.22° C | 96% | 1012.5 hPa | 0 mm | - | 0 W/m² | - |
| 1777766888 | 22.22° C | 96% | 1012.2 hPa | 0 mm | - | 1 W/m² | - |
| 1777766289 | 22.22° C | 96% | 1012 hPa | 0 mm | - | 4 W/m² | - |
| 1777765688 | 22.22° C | 96% | 1011.5 hPa | 0 mm | - | 11 W/m² | - |
| 1777765088 | 22.22° C | 96% | 1011.9 hPa | 0 mm | - | 25 W/m² | - |
| 1777764487 | 22.22° C | 96% | 1012 hPa | 0 mm | - | 32 W/m² | - |
| 1777763886 | 22.22° C | 96% | 1012.1 hPa | 0 mm | - | 38 W/m² | - |
| 1777763282 | 22.22° C | 96% | 1012.2 hPa | 0 mm | - | 30 W/m² | - |
| 1777762682 | 22.22° C | 96% | 1012.1 hPa | 0 mm | - | 43 W/m² | - |
| 1777762081 | 22.22° C | 96% | 1012 hPa | 0 mm | - | 47 W/m² | - |
| 1777761481 | 22.22° C | 96% | 1012.2 hPa | 0 mm | - | 48 W/m² | - |
| 1777760877 | 22.22° C | 96% | 1012.5 hPa | 0 mm | - | 44 W/m² | - |
* Rain latest hour (hover to see other rain measurements)
** Current wind speed in m/s (hover to see current wind gust speed)